Location: downtown San Diego
(32.7310°N, 117.1990°W)
Time: 17:15:28
(UTC-07:00)

USA 238 - Pass Details

Date: 19 May 2017
Orbit: 1083 x 1130 km, 63.4° (Epoch: 25 August)

Event Time Altitude Azimuth Distance (km) Brightness Sun altitude
Rises 20:50:08 0° 325° (NW) 3,942 8.1 -13.0°
Reaches altitude 10° 20:52:50 10° 322° (NW) 2,988 7.3 -13.4°
Maximum altitude 20:59:48 59° 245° (WSW) 1,277 4.2 -14.6°
Enters shadow 21:06:27 11° 168° (SSE) 2,884 5.5 -15.8°
